Total_Precipitation_Accumulation
1.14 1.14 1.02 0.93 0.94 0.98 1.09 1.14 1.03 0.84 0.77 0.77 0.64 0.50 0.47 0.40 0.29 0.28 0.32 0.23 0.15 0.11 0.09 0.09 0.11 0.14 0.19 0.28 0.40 0.52 0.61 0.67 0.73 0.77 0.80 0.84 0.89 0.94
1.02 1.03 1.02 0.99 1.02 0.98 1.05 1.13 1.12 0.98 0.73 0.77 0.72 0.50 0.49 0.32 0.27 0.28 0.26 0.21 0.15 0.10 0.08 0.08 0.09 0.10 0.13 0.18 0.24 0.34 0.44 0.51 0.61 0.67 0.69 0.70 0.71 0.77
0.75 0.75 0.74 0.76 0.80 0.79 0.83 0.88 0.97 0.97 0.74 0.75 0.90 0.73 0.63 0.47 0.37 0.36 0.25 0.20 0.19 0.14 0.10 0.08 0.08 0.11 0.15 0.16 0.18 0.23 0.28 0.32 0.38 0.48 0.58 0.63 0.65 0.69
0.65 0.62 0.56 0.59 0.65 0.63 0.65 0.70 0.80 0.93 0.84 0.72 0.81 0.84 0.75 0.58 0.50 0.46 0.34 0.24 0.25 0.21 0.13 0.10 0.10 0.11 0.16 0.18 0.18 0.19 0.21 0.25 0.27 0.31 0.39 0.46 0.50 0.55
0.47 0.42 0.39 0.40 0.48 0.51 0.55 0.58 0.63 0.83 0.85 0.76 0.73 0.86 0.81 0.66 0.65 0.56 0.52 0.52 0.37 0.30 0.19 0.14 0.15 0.15 0.17 0.21 0.22 0.22 0.22 0.23 0.24 0.28 0.35 0.41 0.46 0.50
0.38 0.30 0.26 0.30 0.37 0.42 0.46 0.50 0.53 0.59 0.68 0.71 0.71 0.78 0.77 0.65 0.74 0.73 0.68 0.66 0.58 0.45 0.36 0.23 0.18 0.20 0.22 0.23 0.25 0.28 0.30 0.30 0.31 0.35 0.38 0.42 0.48 0.53
0.31 0.25 0.23 0.23 0.25 0.29 0.32 0.39 0.43 0.47 0.50 0.57 0.63 0.69 0.78 0.69 0.63 0.69 0.71 0.71 0.72 0.74 0.76 0.52 0.30 0.26 0.27 0.27 0.29 0.35 0.43 0.46 0.48 0.52 0.56 0.59 0.61 0.65
0.23 0.19 0.18 0.18 0.19 0.21 0.23 0.24 0.25 0.27 0.33 0.42 0.48 0.54 0.64 0.68 0.62 0.63 0.68 0.70 0.75 0.80 0.93 0.99 0.75 0.56 0.46 0.31 0.27 0.33 0.45 0.56 0.60 0.66 0.72 0.81 0.88 0.87
0.17 0.14 0.10 0.11 0.12 0.11 0.11 0.12 0.15 0.14 0.16 0.25 0.27 0.26 0.32 0.37 0.45 0.59 0.73 0.78 0.86 0.99 1.03 1.17 1.31 1.13 0.76 0.50 0.38 0.30 0.37 0.49 0.57 0.64 0.73 0.78 0.91 1.06
0.16 0.12 0.08 0.07 0.08 0.07 0.08 0.11 0.09 0.06 0.05 0.07 0.08 0.08 0.11 0.15 0.19 0.26 0.46 0.73 0.86 1.01 1.11 1.30 1.49 1.76 1.40 0.91 0.67 0.48 0.45 0.48 0.55 0.60 0.68 0.77 0.82 0.92
0.17 0.13 0.10 0.08 0.06 0.05 0.06 0.07 0.06 0.04 0.02 0.03 0.04 0.05 0.05 0.06 0.08 0.13 0.19 0.29 0.52 0.89 1.14 1.37 1.52 1.71 2.06 1.70 1.06 0.66 0.48 0.44 0.48 0.55 0.60 0.69 0.74 0.77
0.20 0.14 0.10 0.07 0.05 0.04 0.05 0.04 0.03 0.02 0.01 0.02 0.04 0.04 0.04 0.03 0.03 0.06 0.08 0.12 0.22 0.44 0.70 0.86 1.03 1.23 1.74 2.11 1.81 1.22 0.80 0.57 0.45 0.46 0.50 0.59 0.69 0.68
0.19 0.15 0.11 0.07 0.04 0.02 0.04 0.04 0.02 0.01 0.01 0.01 0.02 0.03 0.04 0.04 0.03 0.03 0.06 0.12 0.16 0.20 0.25 0.42 0.69 0.86 1.06 1.48 1.74 1.69 1.35 1.05 0.83 0.65 0.58 0.58 0.64 0.70
0.19 0.14 0.11 0.07 0.04 0.02 0.02 0.02 0.01 0.01 0.01 0.01 0.01 0.01 0.01 0.02 0.02 0.03 0.05 0.08 0.11 0.17 0.22 0.32 0.59 0.73 0.90 1.13 1.32 1.44 1.47 1.36 1.23 1.11 1.00 0.91 0.83 0.81
0.22 0.14 0.10 0.06 0.03 0.02 0.01 0.01 0.00 0.00 0.01 0.01 0.01 0.01 0.01 0.01 0.01 0.02 0.03 0.04 0.05 0.04 0.05 0.13 0.26 0.37 0.56 0.83 0.99 1.03 1.10 1.20 1.25 1.25 1.25 1.21 1.13 1.04
0.23 0.13 0.08 0.05 0.03 0.02 0.01 0.00 0.00 0.01 0.01 0.01 0.01 0.02 0.01 0.00 0.01 0.01 0.02 0.03 0.05 0.05 0.04 0.05 0.09 0.16 0.26 0.37 0.46 0.51 0.59 0.73 0.90 1.01 1.17 1.34 1.39 1.38
0.20 0.12 0.08 0.04 0.03 0.02 0.01 0.00 0.00 0.00 0.00 0.00 0.01 0.01 0.01 0.01 0.01 0.01 0.02 0.02 0.03 0.04 0.05 0.04 0.05 0.09 0.14 0.23 0.31 0.35 0.39 0.41 0.49 0.66 0.88 1.17 1.27 1.16
0.15 0.09 0.06 0.03 0.02 0.02 0.01 0.01 0.00 0.00 0.00 0.00 0.00 0.00 0.01 0.01 0.02 0.02 0.01 0.02 0.02 0.03 0.05 0.06 0.06 0.10 0.17 0.18 0.14 0.21 0.32 0.36 0.39 0.46 0.55 0.68 0.77 0.71
0.11 0.07 0.04 0.02 0.01 0.01 0.01 0.02 0.01 0.00 0.00 0.00 0.00 0.01 0.01 0.01 0.01 0.02 0.03 0.03 0.03 0.04 0.07 0.09 0.10 0.10 0.15 0.21 0.21 0.10 0.12 0.21 0.30 0.42 0.47 0.46 0.45 0.39
0.08 0.05 0.03 0.01 0.00 0.00 0.00 0.00 0.01 0.00 0.00 0.00 0.00 0.01 0.01 0.01 0.01 0.01 0.02 0.02 0.03 0.04 0.05 0.07 0.10 0.12 0.13 0.16 0.21 0.23 0.13 0.10 0.16 0.25 0.33 0.35 0.32 0.23
0.06 0.05 0.02 0.01 0.00 0.00 0.00 0.00 0.00 0.00 0.00 0.00 0.00 0.00 0.00 0.01 0.01 0.01 0.01 0.01 0.03 0.04 0.06 0.07 0.08 0.09 0.15 0.21 0.25 0.31 0.29 0.16 0.09 0.10 0.18 0.26 0.32 0.31
0.03 0.03 0.02 0.01 0.00 0.00 0.00 0.00 0.00 0.00 0.00 0.00 0.00 0.00 0.00 0.00 0.00 0.01 0.01 0.02 0.02 0.02 0.03 0.05 0.06 0.09 0.15 0.23 0.28 0.29 0.30 0.29 0.21 0.12 0.09 0.12 0.19 0.27
0.02 0.02 0.01 0.00 0.00 0.00 0.00 0.00 0.00 0.00 0.00 0.00 0.00 0.00 0.00 0.00 0.00 0.00 0.00 0.01 0.01 0.01 0.02 0.04 0.06 0.10 0.13 0.18 0.24 0.28 0.28 0.27 0.29 0.29 0.23 0.11 0.06 0.07